Flag for Brazil Weather past 2 weeks in Rio Branco, Acre, Brazil

Now
73 °F

Clear.


Feels Like: 72 °F
Forecast: 70 / 94 °F
Wind: No wind

Location: Rio Branco Airport

Current Time: Aug 3, 2015 at 12:38:15 AM

Latest Report: Aug 3, 2015 at 12:00 AM


Visibility: 10 mi

Pressure: 29.86 "Hg

Humidity: 89%

Dew point: 70 °F

Location of Rio BrancoLocation

Historic Weather in Rio Branco — Graph

°F

Rio Branco temperature yesterday

Maximum temperature yesterday: 93 °F (at 1:00 PM)
Minimum temperature yesterday: 72 °F (at 3:00 AM)
Average temperature yesterday: 82 °F

Past Weeks' High & Low Weather Summary

 TemperatureHumidityPressure
High95 °F (Jul 29, 1:00 PM)100% (Jul 19, 2:00 AM)30.09 "Hg (Jul 19, 2:00 AM)
Low61 °F (Jul 22, 6:00 AM)30% (Jul 31, 3:00 PM)29.80 "Hg (Aug 2, 3:00 PM)
Average78 °F72%29.94 "Hg
* Reported Midnight between Jul 18 and Jul 19 — Midnight between Aug 2 and Aug 3, Rio Branco, Weather by CustomWeather, © 2015

Note: Actual official high and low records may vary slightly from our data, if they occured in-between our weather recording intervals... More about our weather records

Advertising

Rio Branco weather history for previous 24 hours

 ConditionsComfort  
Time TempWeatherWind HumidityBarometerVisibility
12:00 AM
Mon, Aug 3
73 °FClear.No wind89%29.86 "Hg10 mi
11:00 PM
Sun, Aug 2
75 °FClear.2 mph83%29.86 "Hg10 mi
10:00 PM77 °FClear.1 mph79%29.86 "Hg10 mi
9:00 PM77 °FClear.3 mph79%29.86 "Hg10 mi
8:00 PM77 °FClear.2 mph79%29.83 "Hg10 mi
7:00 PM81 °FClear.No wind74%29.80 "Hg10 mi
6:00 PM86 °FPassing clouds.5 mph59%29.80 "HgN/A
5:00 PM90 °FPassing clouds.6 mph49%29.80 "HgN/A
4:00 PM91 °FPassing clouds.8 mph46%29.80 "HgN/A
3:00 PM93 °FScattered clouds.8 mph44%29.80 "HgN/A
2:00 PM93 °FScattered clouds.8 mph39%29.83 "HgN/A
1:00 PM93 °FScattered clouds.8 mph44%29.86 "HgN/A
12:00 PM91 °FScattered clouds.6 mph46%29.89 "HgN/A
11:00 AM90 °FScattered clouds.5 mph52%29.92 "HgN/A
10:00 AM88 °FSunny.8 mph59%29.92 "Hg10 mi
9:00 AM84 °FSunny.8 mph66%29.95 "Hg10 mi
8:00 AM79 °FSunny.8 mph74%29.92 "Hg10 mi
7:00 AM75 °FSunny.3 mph83%29.92 "Hg10 mi
6:00 AM73 °FClear.5 mph89%29.89 "Hg10 mi
5:00 AM73 °FClear.5 mph89%29.86 "Hg10 mi
4:00 AM73 °FClear.3 mph89%29.86 "Hg10 mi
3:00 AM72 °FClear.No wind94%29.86 "Hg10 mi
2:00 AM73 °FClear.3 mph89%29.86 "Hg10 mi
1:00 AM75 °FClear.2 mph83%29.89 "Hg10 mi
12:00 AM75 °FClear.2 mph83%29.89 "Hg10 mi
Weather by CustomWeather, © 2015

See weather overviewHow to use our weather pages